Frederick, OK

2:22 AM CDT on April 24, 2018 (GMT -0500)
Frederick Municipal

Weather History for KFDR - November, 2013

Change the Weather History Date:

Thursday, November 21, 2013

  Actual Average (KLTS) Record (KLTS)
Temperature  
Mean Temperature 56 °F -  
Max Temperature 77 °F 56 °F 79 °F (2010)
Min Temperature 33 °F 35 °F 24 °F (2000)
Degree Days  
Heating Degree Days 10    
Growing Degree Days 6 (Base 50)    
Moisture  
Dew Point 46 °F    
Average Humidity 71    
Maximum Humidity 84    
Minimum Humidity 50    
Precipitation  
Precipitation 0.00 in - - ()
Sea Level Pressure  
Sea Level Pressure 30.01 in    
Wind  
Wind Speed 17 mph (WSW)    
Max Wind Speed 40 mph    
Max Gust Speed 47 mph    
Visibility 10 miles    
Events      
Averages and records for this station are not official NWS values.
T = Trace of Precipitation, MM = Missing Value Source: NWS Daily Summary

Daily Weather History Graph

Daily Weather History Graph

Search for Another Location

Airport or City:

Astronomy

Nov. 21, 2013 Rise Set
Actual Time 7:15 AM CST 5:28 PM CST
Civil Twilight 6:48 AM CST 5:55 PM CST
Nautical Twilight 6:17 AM CST 6:26 PM CST
Astronomical Twilight 5:47 AM CST 6:56 PM CST
Moon 9:05 PM CST (11/21) 10:23 AM CST (11/21)
Length of Visible Light 11h 07m
Length of Day
10h 13m
Waning Gibbous, 85% of the Moon is Illuminated
Nov 21
Waning Gibbous
Nov 25
Last Quarter
Dec 2
New
Dec 9
First Quarter
Dec 17
Full

Hourly Weather History & Observations

Time (CST) Temp. Windchill Dew Point Humidity Pressure Visibility Wind Dir Wind Speed Gust Speed Precip Events Conditions
12:53 AM 62.1 °F - 54.0 °F 75% 29.82 in 10.0 mi SSE 16.1 mph - N/A   Overcast
1:53 AM 62.1 °F - 55.0 °F 78% 29.82 in 10.0 mi SSE 13.8 mph - N/A   Overcast
2:53 AM 62.1 °F - 55.0 °F 78% 29.82 in 10.0 mi SSE 15.0 mph - N/A   Overcast
3:53 AM 63.0 °F - 55.9 °F 78% 29.82 in 10.0 mi South 11.5 mph - N/A   Overcast
4:53 AM 62.1 °F - 55.9 °F 80% 29.82 in 10.0 mi South 11.5 mph - N/A   Scattered Clouds
5:53 AM 63.0 °F - 57.9 °F 84% 29.83 in 10.0 mi South 10.4 mph - N/A   Overcast
6:53 AM 64.0 °F - 57.9 °F 80% 29.86 in 10.0 mi South 11.5 mph - N/A   Overcast
7:53 AM 64.0 °F - 59.0 °F 84% 29.88 in 10.0 mi South 8.1 mph - N/A   Overcast
8:53 AM 66.0 °F - 60.1 °F 81% 29.91 in 10.0 mi South 9.2 mph - N/A   Overcast
9:53 AM 68.0 °F - 61.0 °F 78% 29.93 in 10.0 mi SSW 9.2 mph - N/A   Overcast
10:53 AM 70.0 °F - 61.0 °F 73% 29.94 in 10.0 mi SSW 10.4 mph - N/A   Overcast
11:08 AM 71.6 °F - 60.8 °F 69% 29.96 in 10.0 mi SSW 10.4 mph - N/A   Overcast
11:53 AM 73.0 °F - 61.0 °F 66% 29.91 in 10.0 mi SSW 11.5 mph - N/A   Overcast
12:53 PM 73.0 °F - 57.9 °F 59% 29.90 in 10.0 mi West 9.2 mph - N/A   Overcast
1:53 PM 77.0 °F - 57.0 °F 50% 29.90 in 10.0 mi NW 8.1 mph - N/A   Mostly Cloudy
2:53 PM 53.1 °F - 39.9 °F 61% 29.99 in 10.0 mi North 32.2 mph 42.6 mph N/A   Mostly Cloudy
3:53 PM 46.0 °F 35.3 °F 35.1 °F 66% 30.05 in 10.0 mi North 40.3 mph 47.2 mph N/A   Mostly Cloudy
4:53 PM 42.1 °F 31.3 °F 32.0 °F 67% 30.10 in 10.0 mi North 29.9 mph 41.4 mph N/A   Overcast
5:53 PM 39.0 °F 27.4 °F 30.0 °F 70% 30.16 in 10.0 mi North 28.8 mph 42.6 mph N/A   Overcast
6:00 PM 39.2 °F 27.8 °F 30.2 °F 70% 30.17 in 10.0 mi North 27.6 mph 38.0 mph N/A   Overcast
6:53 PM 37.0 °F 24.3 °F 28.0 °F 70% 30.21 in 10.0 mi North 31.1 mph 40.3 mph N/A   Overcast
7:53 PM 36.0 °F 22.8 °F 27.0 °F 70% 30.25 in 10.0 mi North 31.1 mph 38.0 mph N/A   Overcast
8:53 PM 35.1 °F 22.5 °F 25.0 °F 67% 30.30 in 10.0 mi North 26.5 mph 36.8 mph N/A   Overcast
9:53 PM 34.0 °F 20.8 °F 24.1 °F 67% 30.31 in 10.0 mi North 27.6 mph 38.0 mph N/A   Overcast
10:53 PM 34.0 °F 20.8 °F 23.0 °F 64% 30.35 in 10.0 mi North 27.6 mph 36.8 mph N/A   Overcast
11:53 PM 33.1 °F 18.7 °F 21.9 °F 64% 30.37 in 10.0 mi North 32.2 mph 40.3 mph N/A   Overcast